TimeCST,TemperatureF,Dew PointF,Humidity,Sea Level PressureIn,VisibilityMPH,Wind Direction,Wind SpeedMPH,Gust SpeedMPH,PrecipitationIn,Events,Conditions,WindDirDegrees,DateUTC
12:53 AM,42.1,33.1,70,30.27,10.0,ENE,5.8,-,N/A,,Overcast,60,2013-01-27 06:53:00
1:53 AM,43.0,32.0,65,30.27,10.0,NE,5.8,-,N/A,,Overcast,50,2013-01-27 07:53:00
2:53 AM,42.1,33.1,70,30.25,10.0,ENE,8.1,-,N/A,,Overcast,60,2013-01-27 08:53:00
3:53 AM,42.1,33.1,70,30.24,10.0,ENE,5.8,-,N/A,,Overcast,60,2013-01-27 09:53:00
4:17 AM,42.8,33.8,70,30.24,10.0,ENE,4.6,-,N/A,,Overcast,70,2013-01-27 10:17:00
4:53 AM,42.1,33.1,70,30.22,10.0,ENE,9.2,-,N/A,,Overcast,60,2013-01-27 10:53:00
5:53 AM,42.1,34.0,73,30.24,10.0,ENE,8.1,-,N/A,,Overcast,60,2013-01-27 11:53:00
6:53 AM,42.1,34.0,73,30.24,10.0,East,8.1,-,N/A,,Overcast,80,2013-01-27 12:53:00
7:53 AM,43.0,36.0,76,30.24,10.0,ENE,4.6,-,N/A,,Overcast,70,2013-01-27 13:53:00
8:53 AM,45.0,37.0,74,30.24,10.0,East,4.6,-,N/A,,Overcast,80,2013-01-27 14:53:00
9:53 AM,46.9,37.9,71,30.24,10.0,ESE,4.6,-,N/A,,Overcast,120,2013-01-27 15:53:00
10:53 AM,50.0,39.0,66,30.24,10.0,SSE,5.8,-,N/A,,Overcast,160,2013-01-27 16:53:00
11:05 AM,50.0,39.2,66,30.23,10.0,SSE,5.8,-,N/A,,Overcast,150,2013-01-27 17:05:00
11:53 AM,51.1,41.0,68,30.20,10.0,South,8.1,-,N/A,,Overcast,170,2013-01-27 17:53:00
12:53 PM,53.1,45.0,74,30.17,10.0,South,6.9,-,0.00,,Overcast,170,2013-01-27 18:53:00
1:28 PM,55.4,46.4,72,30.15,10.0,South,10.4,-,N/A,,Partly Cloudy,170,2013-01-27 19:28:00
1:53 PM,55.9,48.0,75,30.14,10.0,South,9.2,-,0.00,Rain,Light Rain,170,2013-01-27 19:53:00
2:53 PM,57.9,50.0,75,30.12,10.0,South,9.2,-,0.00,,Scattered Clouds,170,2013-01-27 20:53:00
3:53 PM,60.1,52.0,75,30.11,10.0,SSE,8.1,-,N/A,,Mostly Cloudy,160,2013-01-27 21:53:00
4:08 PM,60.8,51.8,72,30.10,10.0,South,10.4,-,N/A,,Scattered Clouds,170,2013-01-27 22:08:00
4:53 PM,60.1,53.1,78,30.09,10.0,SSE,11.5,-,N/A,,Clear,160,2013-01-27 22:53:00
5:53 PM,57.9,53.1,84,30.10,10.0,SSE,8.1,-,N/A,,Partly Cloudy,160,2013-01-27 23:53:00
6:53 PM,57.9,53.1,84,30.10,10.0,South,9.2,-,N/A,,Clear,170,2013-01-28 00:53:00
7:53 PM,55.9,53.1,90,30.09,10.0,South,8.1,-,N/A,,Clear,180,2013-01-28 01:53:00
8:53 PM,55.0,52.0,89,30.09,10.0,Calm,Calm,-,N/A,,Clear,0,2013-01-28 02:53:00
9:53 PM,55.9,52.0,87,30.09,10.0,South,5.8,-,N/A,,Overcast,170,2013-01-28 03:53:00
10:53 PM,55.9,52.0,87,30.08,10.0,South,8.1,-,N/A,,Overcast,170,2013-01-28 04:53:00
11:53 PM,55.9,52.0,87,30.08,10.0,South,8.1,-,N/A,,Overcast,180,2013-01-28 05:53:00